CW2551 Weather Reports


Display with metric or nautical units.
time (UTC)temp
F
wind
direction
speed
MPH
gust
MPH
rain 1hr
in
rain 24hr
in
rain mn
in
humidity
%
barometer
mb
20190222232009 50 0 2.0 7.0 0.00 0.00 0.00 42 1020.0
20190222231602 50 0 2.0 7.0 0.00 0.00 0.00 42 1020.0
20190222231102 50 0 1.0 6.0 0.00 0.00 0.00 42 1020.0
20190222231009 50 1 1.0 6.0 0.00 0.00 0.00 42 1020.0
20190222230601 50 1 1.0 6.0 0.00 0.00 0.00 42 1020.0
20190222230102 50 2 0.0 1.0 0.00 0.00 0.00 41 1020.0
20190222230010 50 2 0.0 5.0 0.00 0.00 0.00 42 1020.0
20190222225602 50 2 0.0 5.0 0.00 0.00 0.00 42 1020.0
20190222225102 50 5 1.0 3.0 0.00 0.00 0.00 42 1020.0
20190222225009 50 5 0.0 1.0 0.00 0.00 0.00 41 1020.1
20190222224602 50 5 0.0 1.0 0.00 0.00 0.00 41 1020.1
20190222224101 50 5 0.0 0.0 0.00 0.00 0.00 41 1020.0
20190222224010 50 5 0.0 3.0 0.00 0.00 0.00 41 1020.1
20190222223602 50 5 0.0 3.0 0.00 0.00 0.00 41 1020.1
20190222223102 50 5 0.0 3.0 0.00 0.00 0.00 41 1020.1
20190222223010 50 5 0.0 2.0 0.00 0.00 0.00 42 1020.1
20190222222602 50 5 0.0 2.0 0.00 0.00 0.00 42 1020.1
20190222222102 50 5 0.0 3.0 0.00 0.00 0.00 42 1020.1
20190222222010 50 5 1.0 3.0 0.00 0.00 0.00 41 1020.1
20190222221601 50 5 1.0 3.0 0.00 0.00 0.00 41 1020.1
20190222221009 50 5 0.0 0.0 0.00 0.00 0.00 41 1020.1
20190222220602 50 5 0.0 0.0 0.00 0.00 0.00 41 1020.1
20190222220102 50 6 0.0 1.0 0.00 0.00 0.00 42 1020.2
20190222220010 50 6 0.0 2.0 0.00 0.00 0.00 43 1020.3
20190222215602 50 6 0.0 2.0 0.00 0.00 0.00 43 1020.3
20190222215102 50 12 0.0 3.0 0.00 0.00 0.00 40 1020.5
20190222215009 50 5 0.0 3.0 0.00 0.00 0.00 44 1020.5
20190222214602 50 5 0.0 3.0 0.00 0.00 0.00 44 1020.5
20190222214102 50 10 1.0 3.0 0.00 0.00 0.00 42 1020.6
20190222214009 49 18 3.0 6.0 0.00 0.00 0.00 42 1020.6
20190222213601 49 18 3.0 6.0 0.00 0.00 0.00 42 1020.6
20190222213101 49 0 1.0 5.0 0.00 0.00 0.00 41 1020.6
20190222213011 49 359 0.0 2.0 0.00 0.00 0.00 40 1020.7
20190222212602 49 359 0.0 2.0 0.00 0.00 0.00 40 1020.7
20190222212102 49 352 1.0 6.0 0.00 0.00 0.00 41 1020.6
20190222212010 48 327 0.0 3.0 0.00 0.00 0.00 44 1021.0
20190222211601 48 327 0.0 3.0 0.00 0.00 0.00 44 1021.0
20190222211102 48 326 0.0 2.0 0.00 0.00 0.00 44 1021.0
20190222211009 48 326 2.0 5.0 0.00 0.00 0.00 44 1021.1
20190222210602 48 326 2.0 5.0 0.00 0.00 0.00 44 1021.1
20190222210102 47 326 2.0 5.0 0.00 0.00 0.00 46 1021.1
20190222210011 47 322 2.0 3.0 0.00 0.00 0.00 44 1021.1
20190222205602 47 322 2.0 3.0 0.00 0.00 0.00 44 1021.1
20190222205102 47 326 0.0 3.0 0.00 0.00 0.00 45 1021.1
20190222205010 46 323 0.0 5.0 0.00 0.00 0.00 45 1021.2
20190222204602 46 323 0.0 5.0 0.00 0.00 0.00 45 1021.2
20190222204102 46 323 1.0 5.0 0.00 0.00 0.00 45 1021.2
20190222204009 46 318 0.0 3.0 0.00 0.00 0.00 44 1021.4
20190222203602 46 318 0.0 3.0 0.00 0.00 0.00 44 1021.4
20190222203102 46 313 2.0 3.0 0.00 0.00 0.00 47 1021.4
20190222203011 46 307 0.0 3.0 0.00 0.00 0.00 46 1021.6
20190222202602 46 307 0.0 3.0 0.00 0.00 0.00 46 1021.6
20190222202102 46 308 1.0 5.0 0.00 0.00 0.00 48 1021.5
20190222202009 45 328 0.0 3.0 0.00 0.00 0.00 49 1021.6
20190222201602 45 328 0.0 3.0 0.00 0.00 0.00 49 1021.6
20190222201102 45 337 0.0 3.0 0.00 0.00 0.00 49 1021.6
20190222201010 44 359 0.0 0.0 0.00 0.00 0.00 47 1021.8
20190222200602 44 359 0.0 0.0 0.00 0.00 0.00 47 1021.8
20190222200102 44 359 0.0 3.0 0.00 0.00 0.00 46 1021.8
20190222200010 44 340 0.0 3.0 0.00 0.00 0.00 48 1021.8
20190222195602 44 340 0.0 3.0 0.00 0.00 0.00 48 1021.8
20190222195102 44 339 0.0 0.0 0.00 0.00 0.00 50 1021.9
20190222195009 44 339 1.0 3.0 0.00 0.00 0.00 52 1022.1
20190222194601 44 339 1.0 3.0 0.00 0.00 0.00 52 1022.1
20190222194102 43 332 0.0 1.0 0.00 0.00 0.00 52 1022.2
20190222194009 43 333 0.0 3.0 0.00 0.00 0.00 52 1022.3
20190222193603 43 333 0.0 3.0 0.00 0.00 0.00 52 1022.3
20190222193103 43 335 1.0 3.0 0.00 0.00 0.00 52 1022.3
20190222193012 42 359 0.0 5.0 0.00 0.01 0.00 53 1022.3
20190222192602 42 359 0.0 5.0 0.00 0.01 0.00 53 1022.3
20190222192102 42 358 2.0 5.0 0.00 0.01 0.00 53 1022.4
20190222192009 42 283 0.0 3.0 0.00 0.01 0.00 54 1022.4
20190222191602 42 283 0.0 3.0 0.00 0.01 0.00 54 1022.4
20190222191102 41 280 1.0 3.0 0.00 0.01 0.00 57 1022.6
20190222191009 41 273 1.0 3.0 0.00 0.01 0.00 57 1022.6
20190222190602 41 273 1.0 3.0 0.00 0.01 0.00 57 1022.6
20190222190103 40 269 0.0 3.0 0.00 0.01 0.00 59 1022.6
20190222190011 39 257 1.0 5.0 0.00 0.01 0.00 60 1022.6
20190222185602 39 257 1.0 5.0 0.00 0.01 0.00 60 1022.6
20190222185102 39 106 0.0 0.0 0.00 0.01 0.00 61 1022.7
20190222185009 38 107 0.0 2.0 0.00 0.01 0.00 62 1022.7
20190222184602 38 107 0.0 2.0 0.00 0.01 0.00 62 1022.7
20190222184103 38 107 2.0 3.0 0.00 0.01 0.00 63 1022.7
20190222184010 37 107 0.0 0.0 0.00 0.01 0.00 64 1022.8
20190222183602 37 107 0.0 0.0 0.00 0.01 0.00 64 1022.8
20190222183102 36 109 0.0 0.0 0.00 0.01 0.00 64 1022.8
20190222183011 36 109 0.0 0.0 0.00 0.01 0.00 66 1022.8
20190222182602 36 109 0.0 0.0 0.00 0.01 0.00 66 1022.8
20190222182101 35 109 0.0 0.0 0.00 0.01 0.00 68 1022.9
20190222182011 34 109 0.0 0.0 0.00 0.01 0.00 71 1022.9
20190222181602 34 109 0.0 0.0 0.00 0.01 0.00 71 1022.9
20190222181102 33 109 0.0 0.0 0.00 0.01 0.00 73 1023.1
20190222181010 33 109 0.0 0.0 0.00 0.01 0.00 73 1023.1
20190222180602 33 109 0.0 0.0 0.00 0.01 0.00 73 1023.1
20190222180102 32 109 0.0 0.0 0.00 0.01 0.00 75 1023.4
20190222180010 31 109 0.0 0.0 0.00 0.01 0.00 77 1023.4
20190222175601 31 109 0.0 0.0 0.00 0.01 0.00 77 1023.4
20190222175102 31 109 0.0 2.0 0.00 0.02 0.00 79 1023.6
20190222175010 30 109 0.0 3.0 0.00 0.02 0.00 80 1023.7
20190222174602 30 109 0.0 3.0 0.00 0.02 0.00 80 1023.7
20190222174102 30 112 0.0 0.0 0.00 0.02 0.00 81 1023.6
20190222174010 29 112 0.0 0.0 0.00 0.02 0.00 82 1023.8
20190222173602 29 112 0.0 0.0 0.00 0.02 0.00 82 1023.8
20190222173102 29 113 0.0 0.0 0.00 0.02 0.00 83 1023.7
20190222173011 29 115 0.0 0.0 0.00 0.02 0.00 84 1023.7
20190222172602 29 115 0.0 0.0 0.00 0.02 0.00 84 1023.7
20190222172102 29 115 0.0 0.0 0.00 0.02 0.00 85 1023.6
20190222172009 28 115 0.0 0.0 0.00 0.02 0.00 86 1023.6
20190222171602 28 115 0.0 0.0 0.00 0.02 0.00 86 1023.6
20190222171102 28 115 0.0 0.0 0.00 0.02 0.00 86 1023.7
20190222171010 28 116 0.0 1.0 0.00 0.02 0.00 87 1023.6
20190222170603 28 116 0.0 1.0 0.00 0.02 0.00 87 1023.6
20190222170103 28 116 0.0 0.0 0.00 0.02 0.00 87 1023.5
20190222170011 27 116 0.0 0.0 0.00 0.02 0.00 88 1023.5
20190222165602 27 116 0.0 0.0 0.00 0.02 0.00 88 1023.5
20190222165103 27 116 0.0 0.0 0.00 0.02 0.00 88 1023.6
20190222165010 27 116 0.0 0.0 0.00 0.02 0.00 88 1023.4
20190222164602 27 116 0.0 0.0 0.00 0.02 0.00 88 1023.4
20190222164102 26 116 0.0 0.0 0.00 0.02 0.00 89 1023.3
20190222164010 26 116 0.0 0.0 0.00 0.02 0.00 89 1023.4
20190222163602 26 116 0.0 0.0 0.00 0.02 0.00 89 1023.4
20190222163102 26 116 0.0 0.0 0.00 0.02 0.00 89 1023.4
20190222163011 26 116 0.0 0.0 0.00 0.02 0.00 89 1023.3
20190222162602 26 116 0.0 0.0 0.00 0.02 0.00 89 1023.3
20190222162102 26 116 0.0 0.0 0.00 0.02 0.00 89 1023.1
20190222162010 26 116 0.0 0.0 0.00 0.02 0.00 89 1023.2
20190222161602 26 116 0.0 0.0 0.00 0.02 0.00 89 1023.2
20190222161102 25 116 0.0 0.0 0.00 0.02 0.00 89 1023.3
20190222161009 25 116 0.0 0.0 0.00 0.02 0.00 89 1023.3
20190222160602 25 116 0.0 0.0 0.00 0.02 0.00 89 1023.3
20190222160103 25 116 0.0 0.0 0.00 0.02 0.00 89 1023.3
20190222160010 25 116 0.0 0.0 0.00 0.02 0.00 89 1023.2
20190222155602 25 116 0.0 0.0 0.00 0.02 0.00 89 1023.2
20190222155102 25 116 0.0 0.0 0.00 0.02 0.00 89 1023.3
20190222155010 25 116 0.0 0.0 0.00 0.02 0.00 89 1023.2
20190222154603 25 116 0.0 0.0 0.00 0.02 0.00 89 1023.2
20190222154103 24 116 0.0 0.0 0.00 0.02 0.00 88 1023.3
20190222154011 24 116 0.0 0.0 0.00 0.02 0.00 88 1023.3
20190222153602 24 116 0.0 0.0 0.00 0.02 0.00 88 1023.3
20190222153102 24 116 0.0 0.0 0.00 0.02 0.00 88 1023.3
20190222153011 24 116 0.0 0.0 0.00 0.02 0.00 88 1022.7
20190222152603 24 116 0.0 0.0 0.00 0.02 0.00 88 1022.7
20190222152102 24 116 0.0 0.0 0.00 0.02 0.00 88 1022.6
20190222152010 24 116 0.0 0.0 0.00 0.02 0.00 88 1022.6
20190222151603 24 116 0.0 0.0 0.00 0.02 0.00 88 1022.6
20190222151103 24 116 0.0 0.0 0.00 0.02 0.00 88 1022.6
20190222151010 24 116 0.0 0.0 0.00 0.02 0.00 88 1022.6
20190222150602 24 116 0.0 0.0 0.00 0.02 0.00 88 1022.6
20190222150103 24 116 0.0 0.0 0.00 0.02 0.00 87 1022.5
20190222150011 24 116 0.0 0.0 0.00 0.02 0.00 87 1022.6
20190222145602 24 116 0.0 0.0 0.00 0.02 0.00 87 1022.6
20190222145102 24 116 0.0 0.0 0.00 0.02 0.00 87 1022.5
20190222145009 24 116 0.0 0.0 0.00 0.02 0.00 87 1022.4
20190222144603 24 116 0.0 0.0 0.00 0.02 0.00 87 1022.4
20190222144102 24 116 0.0 0.0 0.00 0.02 0.00 87 1022.3
20190222144010 24 116 0.0 0.0 0.00 0.02 0.00 87 1022.2
20190222143603 24 116 0.0 0.0 0.00 0.02 0.00 87 1022.2
20190222143103 24 116 0.0 0.0 0.00 0.02 0.00 87 1022.2
20190222143011 24 116 0.0 0.0 0.00 0.02 0.00 87 1022.3
20190222142602 24 116 0.0 0.0 0.00 0.02 0.00 87 1022.3
20190222142103 24 116 0.0 0.0 0.00 0.02 0.00 86 1022.0
20190222142009 24 116 0.0 0.0 0.00 0.02 0.00 86 1022.0
20190222141602 24 116 0.0 0.0 0.00 0.02 0.00 86 1022.0
20190222141102 24 116 0.0 0.0 0.00 0.02 0.00 86 1022.0
20190222141010 24 116 0.0 0.0 0.00 0.02 0.00 86 1021.9
20190222140603 24 116 0.0 0.0 0.00 0.02 0.00 86 1021.9
20190222140103 24 116 0.0 0.0 0.00 0.02 0.00 86 1021.9
20190222140011 25 116 0.0 0.0 0.00 0.02 0.00 86 1021.9
20190222135602 25 116 0.0 0.0 0.00 0.02 0.00 86 1021.9
20190222135102 25 116 0.0 0.0 0.00 0.02 0.00 86 1021.9
20190222135009 25 116 0.0 0.0 0.00 0.02 0.00 86 1021.9
20190222134602 25 116 0.0 0.0 0.00 0.02 0.00 86 1021.9
20190222134102 25 116 0.0 0.0 0.00 0.02 0.00 86 1021.9
20190222134010 25 116 0.0 0.0 0.00 0.02 0.00 86 1021.9
20190222133603 25 116 0.0 0.0 0.00 0.02 0.00 86 1021.9
20190222133102 25 116 0.0 0.0 0.00 0.02 0.00 86 1021.8
20190222133012 25 116 0.0 0.0 0.00 0.02 0.00 86 1021.7
20190222132604 25 116 0.0 0.0 0.00 0.02 0.00 86 1021.7
20190222132102 25 116 0.0 0.0 0.00 0.02 0.00 86 1021.3
20190222132010 25 116 0.0 0.0 0.00 0.02 0.00 86 1021.3
20190222131603 25 116 0.0 0.0 0.00 0.02 0.00 86 1021.3
20190222131102 25 116 0.0 0.0 0.00 0.02 0.00 86 1021.2
20190222131009 25 116 0.0 0.0 0.00 0.02 0.00 86 1021.2
20190222130602 25 116 0.0 0.0 0.00 0.02 0.00 86 1021.2
20190222130103 25 116 0.0 0.0 0.00 0.02 0.00 86 1021.2
20190222130010 25 116 0.0 0.0 0.00 0.02 0.00 86 1021.2
20190222125602 25 116 0.0 0.0 0.00 0.02 0.00 86 1021.2
20190222125102 25 116 0.0 0.0 0.00 0.02 0.00 86 1021.3
20190222125011 25 116 0.0 0.0 0.00 0.02 0.00 86 1021.4
20190222124603 25 116 0.0 0.0 0.00 0.02 0.00 86 1021.4
20190222124103 25 116 0.0 0.0 0.00 0.02 0.00 86 1021.3
20190222124009 25 116 0.0 0.0 0.00 0.02 0.00 86 1021.3
20190222123602 25 116 0.0 0.0 0.00 0.02 0.00 86 1021.3
20190222123102 25 116 0.0 0.0 0.00 0.02 0.00 86 1021.4
20190222123011 25 116 0.0 0.0 0.00 0.02 0.00 86 1021.5
20190222122603 25 116 0.0 0.0 0.00 0.02 0.00 86 1021.5
20190222122103 26 116 0.0 0.0 0.00 0.02 0.00 86 1021.3
20190222122009 26 116 0.0 0.0 0.00 0.02 0.00 86 1021.3
20190222121603 26 116 0.0 0.0 0.00 0.02 0.00 86 1021.3
20190222121102 26 116 0.0 0.0 0.00 0.02 0.00 86 1021.3
20190222121009 26 116 0.0 0.0 0.00 0.02 0.00 86 1021.3
20190222120603 26 116 0.0 0.0 0.00 0.02 0.00 86 1021.3
20190222120102 26 116 0.0 0.0 0.00 0.02 0.00 86 1021.2
20190222120010 26 116 0.0 0.0 0.00 0.02 0.00 85 1021.2
20190222115603 26 116 0.0 0.0 0.00 0.02 0.00 85 1021.2
20190222115102 26 116 0.0 0.0 0.00 0.02 0.00 85 1021.2
20190222115010 26 116 0.0 0.0 0.00 0.02 0.00 85 1021.2
20190222114603 26 116 0.0 0.0 0.00 0.02 0.00 85 1021.2
20190222114103 26 116 0.0 0.0 0.00 0.02 0.00 85 1021.1
20190222114009 26 116 0.0 0.0 0.00 0.02 0.00 85 1020.9
20190222113602 26 116 0.0 0.0 0.00 0.02 0.00 85 1020.9
20190222113102 26 116 0.0 0.0 0.00 0.02 0.00 85 1021.0
20190222113011 26 116 0.0 0.0 0.00 0.02 0.00 85 1021.0
20190222112602 26 116 0.0 0.0 0.00 0.02 0.00 85 1021.0
20190222112102 26 116 0.0 0.0 0.00 0.02 0.00 85 1020.9
20190222112010 26 116 0.0 0.0 0.00 0.02 0.00 84 1020.9
20190222111602 26 116 0.0 0.0 0.00 0.02 0.00 84 1020.9
20190222111102 26 116 0.0 0.0 0.00 0.02 0.00 84 1020.8
20190222111010 26 116 0.0 0.0 0.00 0.02 0.00 83 1020.9
20190222110603 26 116 0.0 0.0 0.00 0.02 0.00 83 1020.9
20190222110103 26 116 0.0 0.0 0.00 0.02 0.00 83 1020.8
20190222110011 26 116 0.0 0.0 0.00 0.02 0.00 83 1020.9
20190222105603 26 116 0.0 0.0 0.00 0.02 0.00 83 1020.9
20190222105103 26 116 0.0 0.0 0.00 0.02 0.00 83 1020.9
20190222105009 26 116 0.0 0.0 0.00 0.02 0.00 82 1020.9
20190222104602 26 116 0.0 0.0 0.00 0.02 0.00 82 1020.9
20190222104102 26 116 0.0 0.0 0.00 0.02 0.00 82 1020.9
20190222104010 26 116 0.0 0.0 0.00 0.02 0.00 82 1020.9
20190222103603 26 116 0.0 0.0 0.00 0.02 0.00 82 1020.9
20190222103102 27 116 0.0 0.0 0.00 0.02 0.00 82 1020.9
20190222103011 27 116 0.0 0.0 0.00 0.02 0.00 82 1021.0
20190222102602 27 116 0.0 0.0 0.00 0.02 0.00 82 1021.0
20190222102103 27 116 0.0 0.0 0.00 0.02 0.00 82 1020.8
20190222102009 27 116 0.0 0.0 0.00 0.02 0.00 82 1020.7
20190222101602 27 116 0.0 0.0 0.00 0.02 0.00 82 1020.7
20190222101102 27 116 0.0 0.0 0.00 0.02 0.00 81 1020.7
20190222101010 28 116 0.0 0.0 0.00 0.02 0.00 82 1020.7
20190222100602 28 116 0.0 0.0 0.00 0.02 0.00 82 1020.7
20190222100103 28 116 0.0 0.0 0.00 0.02 0.00 82 1020.7
20190222100011 28 116 0.0 0.0 0.00 0.02 0.00 82 1020.7
20190222095602 28 116 0.0 0.0 0.00 0.02 0.00 82 1020.7
20190222095103 28 116 0.0 0.0 0.00 0.02 0.00 82 1020.7
20190222095009 28 116 0.0 0.0 0.00 0.02 0.00 82 1020.6
20190222094602 28 116 0.0 0.0 0.00 0.02 0.00 82 1020.6
20190222094102 28 116 0.0 0.0 0.00 0.02 0.00 82 1020.4
20190222094009 28 116 0.0 0.0 0.00 0.02 0.00 82 1020.3
20190222093603 28 116 0.0 0.0 0.00 0.02 0.00 82 1020.3
20190222093102 28 116 0.0 0.0 0.00 0.02 0.00 82 1020.4
20190222093011 28 116 0.0 0.0 0.00 0.02 0.00 82 1020.2
20190222092603 28 116 0.0 0.0 0.00 0.02 0.00 82 1020.2
20190222092103 29 116 0.0 0.0 0.00 0.02 0.00 82 1020.4
20190222092009 29 116 0.0 0.0 0.00 0.02 0.00 83 1020.4
20190222091602 29 116 0.0 0.0 0.00 0.02 0.00 83 1020.4
20190222091102 29 116 0.0 0.0 0.00 0.02 0.00 83 1020.5
20190222091011 29 116 0.0 0.0 0.00 0.02 0.00 83 1020.5
20190222090603 29 116 0.0 0.0 0.00 0.02 0.00 83 1020.5
20190222090103 29 116 0.0 0.0 0.00 0.02 0.00 83 1020.3
20190222090011 30 116 0.0 0.0 0.00 0.02 0.00 83 1020.2
20190222085603 30 116 0.0 0.0 0.00 0.02 0.00 83 1020.2
20190222085102 30 116 0.0 0.0 0.00 0.02 0.00 83 1020.2
20190222085009 30 116 0.0 0.0 0.00 0.02 0.00 83 1020.2
20190222084603 30 116 0.0 0.0 0.00 0.02 0.00 83 1020.2
20190222084103 30 116 0.0 0.0 0.00 0.02 0.00 84 1020.2
20190222084010 30 116 0.0 0.0 0.00 0.02 0.00 84 1020.2
20190222083603 30 116 0.0 0.0 0.00 0.02 0.00 84 1020.2
20190222083103 30 116 0.0 0.0 0.00 0.02 0.00 84 1020.2
20190222083011 31 116 0.0 0.0 0.00 0.02 0.00 84 1020.3
20190222082602 31 116 0.0 0.0 0.00 0.02 0.00 84 1020.3
20190222082102 31 116 0.0 0.0 0.00 0.02 0.00 84 1020.4
20190222082010 31 116 0.0 0.0 0.00 0.02 0.00 84 1020.4
20190222081603 31 116 0.0 0.0 0.00 0.02 0.00 84 1020.4
20190222081107 31 116 0.0 0.0 0.00 0.02 0.00 85 1020.4
20190222081010 31 116 0.0 0.0 0.00 0.02 0.00 85 1020.4
20190222080604 31 116 0.0 0.0 0.00 0.02 0.00 85 1020.4
20190222080103 31 116 0.0 0.0 0.00 0.02 0.00 85 1020.4
20190222080010 31 116 0.0 0.0 0.00 0.02 0.02 85 1020.4
20190222075603 31 116 0.0 0.0 0.00 0.02 0.02 85 1020.4
20190222075103 31 116 0.0 0.0 0.00 0.02 0.02 85 1020.4
20190222075010 31 116 0.0 0.0 0.00 0.02 0.02 85 1020.3
20190222074602 31 116 0.0 0.0 0.00 0.02 0.02 85 1020.3
20190222074102 31 116 0.0 0.0 0.00 0.02 0.02 85 1020.2
20190222074010 31 112 0.0 3.0 0.00 0.02 0.02 85 1020.1
20190222073603 31 112 0.0 3.0 0.00 0.02 0.02 85 1020.1
20190222073103 30 107 0.0 3.0 0.00 0.02 0.02 85 1020.2
20190222073011 30 259 0.0 0.0 0.00 0.02 0.02 85 1020.1
20190222072603 30 259 0.0 0.0 0.00 0.02 0.02 85 1020.1
20190222072102 30 259 0.0 0.0 0.00 0.02 0.02 85 1020.4
20190222072010 30 259 0.0 0.0 0.00 0.02 0.02 85 1020.5
20190222071602 30 259 0.0 0.0 0.00 0.02 0.02 85 1020.5
20190222071102 30 259 0.0 0.0 0.00 0.02 0.02 84 1020.6
20190222071010 30 259 0.0 0.0 0.00 0.02 0.02 84 1020.6
20190222070602 30 259 0.0 0.0 0.00 0.02 0.02 84 1020.6
20190222070103 30 259 0.0 0.0 0.00 0.02 0.02 84 1020.7
20190222070011 30 259 0.0 0.0 0.00 0.02 0.02 84 1020.7
20190222065602 30 259 0.0 0.0 0.00 0.02 0.02 84 1020.7
20190222065103 30 259 0.0 0.0 0.00 0.02 0.02 83 1020.7
20190222065009 30 259 0.0 0.0 0.00 0.02 0.02 83 1020.7
20190222064602 30 259 0.0 0.0 0.00 0.02 0.02 83 1020.7
20190222064103 29 259 0.0 0.0 0.00 0.02 0.02 82 1020.8
20190222064010 29 259 0.0 0.0 0.00 0.02 0.02 82 1020.8
20190222063603 29 259 0.0 0.0 0.00 0.02 0.02 82 1020.8
20190222063102 29 259 0.0 0.0 0.00 0.02 0.02 81 1020.8
20190222063012 29 259 0.0 0.0 0.00 0.02 0.02 81 1020.7
20190222062602 29 259 0.0 0.0 0.00 0.02 0.02 81 1020.7
20190222062103 30 259 0.0 0.0 0.00 0.02 0.02 81 1020.8
20190222062010 30 259 0.0 0.0 0.00 0.02 0.02 80 1020.8
20190222061602 30 259 0.0 0.0 0.00 0.02 0.02 80 1020.8
20190222061102 30 259 0.0 0.0 0.00 0.02 0.02 80 1020.8
20190222061010 30 259 0.0 0.0 0.00 0.02 0.02 80 1020.7
20190222060603 30 259 0.0 0.0 0.00 0.02 0.02 80 1020.7
20190222060104 30 259 0.0 0.0 0.00 0.02 0.02 80 1020.7
20190222060010 30 259 0.0 0.0 0.00 0.02 0.02 80 1020.6
20190222055603 30 259 0.0 0.0 0.00 0.02 0.02 80 1020.6
20190222055103 30 259 0.0 0.0 0.00 0.02 0.02 79 1020.5
20190222055010 31 259 0.0 0.0 0.00 0.02 0.02 79 1020.4
20190222054602 31 259 0.0 0.0 0.00 0.02 0.02 79 1020.4
20190222054102 31 259 0.0 0.0 0.00 0.02 0.02 79 1020.4
20190222054010 31 259 0.0 0.0 0.00 0.02 0.02 78 1020.4
20190222053603 31 259 0.0 0.0 0.00 0.02 0.02 78 1020.4
20190222053104 31 259 0.0 0.0 0.00 0.02 0.02 78 1020.3
20190222053011 32 259 0.0 0.0 0.00 0.02 0.02 78 1020.3
20190222052603 32 259 0.0 0.0 0.00 0.02 0.02 78 1020.3
20190222052103 32 259 0.0 0.0 0.00 0.02 0.02 78 1020.3
20190222052010 32 259 0.0 0.0 0.00 0.02 0.02 78 1020.3
20190222051602 32 259 0.0 0.0 0.00 0.02 0.02 78 1020.3
20190222051103 32 259 0.0 0.0 0.00 0.02 0.02 78 1020.2
20190222051010 32 259 0.0 0.0 0.00 0.02 0.02 78 1020.2
20190222050603 32 259 0.0 0.0 0.00 0.02 0.02 78 1020.2
20190222050103 33 259 0.0 0.0 0.00 0.02 0.02 77 1020.0
20190222050011 33 259 0.0 0.0 0.00 0.02 0.02 76 1020.0
20190222045602 33 259 0.0 0.0 0.00 0.02 0.02 76 1020.0
20190222045102 33 259 0.0 0.0 0.00 0.02 0.02 76 1019.9
20190222045010 33 259 0.0 0.0 0.00 0.02 0.02 76 1019.8
20190222044603 33 259 0.0 0.0 0.00 0.02 0.02 76 1019.8
20190222044103 33 259 0.0 0.0 0.00 0.02 0.02 76 1019.7
20190222044011 34 259 0.0 0.0 0.00 0.02 0.02 75 1019.6
20190222043603 34 259 0.0 0.0 0.00 0.02 0.02 75 1019.6
20190222043102 34 259 0.0 0.0 0.00 0.02 0.02 75 1019.6
20190222043011 34 259 0.0 0.0 0.00 0.02 0.02 74 1019.6
20190222042602 34 259 0.0 0.0 0.00 0.02 0.02 74 1019.6
20190222042103 34 259 0.0 0.0 0.00 0.02 0.02 74 1019.7
20190222042010 35 259 0.0 0.0 0.00 0.02 0.02 74 1019.5
20190222041603 35 259 0.0 0.0 0.00 0.02 0.02 74 1019.5
20190222041103 35 259 0.0 0.0 0.00 0.02 0.02 73 1019.4
20190222041010 35 259 0.0 0.0 0.00 0.02 0.02 73 1019.4
20190222040603 35 259 0.0 0.0 0.00 0.02 0.02 73 1019.4
20190222040103 35 259 0.0 0.0 0.00 0.02 0.02 73 1019.3
20190222040011 35 259 0.0 0.0 0.00 0.02 0.02 73 1019.2
20190222035603 35 259 0.0 0.0 0.00 0.02 0.02 73 1019.2
20190222035103 35 259 0.0 0.0 0.00 0.02 0.02 72 1019.2
20190222035010 35 259 0.0 0.0 0.00 0.03 0.02 72 1019.1
20190222034603 35 259 0.0 0.0 0.00 0.03 0.02 72 1019.1
20190222034103 35 259 0.0 0.0 0.00 0.03 0.02 71 1019.1
20190222034010 36 259 0.0 0.0 0.00 0.03 0.02 71 1019.1
20190222033602 36 259 0.0 0.0 0.00 0.03 0.02 71 1019.1
20190222033103 36 259 0.0 0.0 0.00 0.03 0.02 71 1019.1
20190222033011 36 259 0.0 0.0 0.00 0.04 0.02 70 1019.0
20190222032603 36 259 0.0 0.0 0.00 0.04 0.02 70 1019.0
20190222032103 36 259 0.0 0.0 0.00 0.04 0.02 70 1018.9
20190222032010 37 259 0.0 0.0 0.00 0.04 0.02 70 1018.4
20190222031131 37 259 0.0 0.0 0.00 0.04 0.02 70 1018.4
20190222030701 37 259 0.0 0.0 0.00 0.04 0.02 70 1018.4
20190222030203 37 259 0.0 0.0 0.00 0.04 0.02 69 1018.2
20190222025136 37 259 0.0 0.0 0.00 0.04 0.02 69 1018.2
20190222024104 37 259 0.0 0.0 0.00 0.04 0.02 68 1018.0
20190222024010 38 259 0.0 0.0 0.00 0.04 0.02 67 1018.0
20190222023603 38 259 0.0 0.0 0.00 0.04 0.02 67 1018.0
20190222023103 38 259 0.0 0.0 0.00 0.05 0.02 66 1017.9
20190222023012 38 259 0.0 0.0 0.00 0.05 0.02 66 1017.8
20190222022103 38 259 0.0 0.0 0.00 0.05 0.02 66 1017.8
20190222022010 39 259 0.0 0.0 0.00 0.05 0.02 64 1017.7
20190222021604 39 259 0.0 0.0 0.00 0.05 0.02 64 1017.7
20190222021104 39 259 0.0 0.0 0.00 0.06 0.02 64 1017.7
20190222021011 39 259 0.0 0.0 0.00 0.06 0.02 62 1017.5
20190222020603 39 259 0.0 0.0 0.00 0.06 0.02 62 1017.5
20190222020138 41 259 0.0 0.0 0.00 0.06 0.02 57 1017.2
20190222015231 41 259 0.0 0.0 0.00 0.06 0.02 57 1017.2
20190222014633 41 259 0.0 0.0 0.00 0.06 0.02 57 1017.2
20190222014103 41 259 0.0 0.0 0.00 0.07 0.02 56 1017.0
20190222014011 42 259 0.0 0.0 0.00 0.07 0.02 55 1017.0
20190222013603 42 259 0.0 0.0 0.00 0.07 0.02 55 1017.0
20190222013103 43 259 0.0 0.0 0.00 0.07 0.02 53 1017.0
20190222013012 43 259 0.0 0.0 0.00 0.08 0.02 52 1017.0
20190222012603 43 259 0.0 0.0 0.00 0.08 0.02 52 1017.0
20190222012103 44 259 0.0 0.0 0.00 0.08 0.02 50 1016.9
20190222012010 44 259 1.0 3.0 0.00 0.09 0.02 49 1016.9
20190222011603 44 259 1.0 3.0 0.00 0.09 0.02 49 1016.9
20190222011103 45 259 0.0 3.0 0.00 0.10 0.02 46 1016.9
20190222011011 45 259 0.0 3.0 0.00 0.10 0.02 44 1016.9
20190222010604 45 259 0.0 3.0 0.00 0.10 0.02 44 1016.9
20190222010103 46 259 0.0 3.0 0.00 0.10 0.02 43 1016.8
20190222010011 46 259 0.0 3.0 0.00 0.10 0.02 41 1016.8
20190222005603 46 259 0.0 3.0 0.00 0.10 0.02 41 1016.8
20190222005103 47 259 0.0 0.0 0.00 0.10 0.02 42 1016.7
20190222005010 47 259 0.0 0.0 0.00 0.10 0.02 42 1016.7
20190222004605 47 259 0.0 0.0 0.00 0.10 0.02 42 1016.7
20190222004103 47 259 0.0 0.0 0.00 0.10 0.02 41 1016.7
20190222004012 46 258 0.0 0.0 0.00 0.10 0.02 43 1016.7
20190222003104 46 258 0.0 0.0 0.00 0.10 0.02 43 1016.7
20190222003037 46 258 0.0 0.0 0.00 0.10 0.02 43 1016.7
20190222002604 46 258 0.0 0.0 0.00 0.10 0.02 43 1016.7
20190222002103 46 258 0.0 0.0 0.00 0.10 0.02 44 1016.9
20190222002011 45 258 0.0 3.0 0.00 0.10 0.02 45 1016.9
20190222001603 45 258 0.0 3.0 0.00 0.10 0.02 45 1016.9
20190222001103 45 258 1.0 3.0 0.00 0.10 0.02 45 1016.9
20190222001011 45 258 1.0 3.0 0.00 0.10 0.02 45 1016.9
20190222000603 45 258 1.0 3.0 0.00 0.10 0.02 45 1016.9
20190222000104 45 258 0.0 3.0 0.00 0.11 0.02 47 1016.9
20190222000012 45 257 2.0 5.0 0.00 0.11 0.02 47 1016.8
20190221235603 45 257 2.0 5.0 0.00 0.11 0.02 47 1016.8
20190221235103 45 255 1.0 5.0 0.00 0.11 0.02 48 1016.8
20190221235011 45 256 2.0 5.0 0.00 0.11 0.02 47 1016.8
20190221234604 45 256 2.0 5.0 0.00 0.11 0.02 47 1016.8
20190221234103 45 261 1.0 5.0 0.00 0.11 0.02 47 1016.8
20190221234011 45 280 1.0 5.0 0.00 0.11 0.02 48 1016.7
20190221233603 45 280 1.0 5.0 0.00 0.11 0.02 48 1016.7
20190221233103 46 280 3.0 9.0 0.00 0.11 0.02 48 1016.6
20190221233012 46 333 0.0 0.0 0.00 0.11 0.02 45 1016.6
20190221232603 46 333 0.0 0.0 0.00 0.11 0.02 45 1016.6
20190221232103 46 331 0.0 2.0 0.00 0.11 0.02 48 1016.5